AIJ2151 MMTM-MMMX

Flight info

Callsign AIJ2151
Flight time 0h 40m
Altitude 30000
Route NOTOR1A TAM UT102 PAZ UT154 ENAGA ENAGA3A
Aircraft A320/M-SDE3FGHIRWY/LB1

Departure

Time 2026-05-06 23:58
Airport General Francisco Javier Mina International Airport (MMTM)

Arrival

Time 2026-05-07 00:38
Airport Mexico City Benito Juárez International Airport (MMMX)
Time Latitude Longitude Altitude Speed Heading
2026-05-06 23:23 22.28982 -97.86919 101 ft 0 kts 234°
2026-05-06 23:47 22.28983 -97.86917 100 ft 3 kts 234°
2026-05-06 23:47 22.28995 -97.86898 98 ft 4 kts 240°
2026-05-06 23:48 22.29000 -97.86872 100 ft 4 kts 289°
2026-05-06 23:48 22.28987 -97.86849 99 ft 3 kts 323°
2026-05-06 23:48 22.28985 -97.86847 99 ft 0 kts 324°
2026-05-06 23:53 22.28992 -97.86853 101 ft 3 kts 324°
2026-05-06 23:54 22.29026 -97.86879 99 ft 9 kts 324°
2026-05-06 23:54 22.29088 -97.86926 101 ft 9 kts 325°
2026-05-06 23:54 22.29142 -97.86904 100 ft 11 kts 47°
2026-05-06 23:54 22.29225 -97.86883 100 ft 15 kts 356°
2026-05-06 23:55 22.29334 -97.86891 100 ft 17 kts 356°
2026-05-06 23:55 22.29464 -97.86904 100 ft 20 kts 355°
2026-05-06 23:55 22.29575 -97.86939 99 ft 18 kts 326°
2026-05-06 23:55 22.29686 -97.87024 99 ft 21 kts 324°
2026-05-06 23:56 22.29815 -97.87122 100 ft 24 kts 325°
2026-05-06 23:56 22.29958 -97.87229 100 ft 27 kts 325°
2026-05-06 23:56 22.30087 -97.87326 101 ft 21 kts 323°
2026-05-06 23:56 22.30142 -97.87423 100 ft 10 kts 297°
2026-05-06 23:57 22.30176 -97.87398 100 ft 9 kts 104°
2026-05-06 23:57 22.30157 -97.87378 101 ft 0 kts 145°
2026-05-06 23:57 22.29939 -97.87213 101 ft 79 kts 144°
2026-05-06 23:58 22.29296 -97.86726 102 ft 143 kts 145°
2026-05-06 23:58 22.28417 -97.86060 543 ft 157 kts 141°
2026-05-06 23:58 22.27548 -97.85359 1264 ft 156 kts 142°
2026-05-06 23:58 22.26672 -97.84586 1673 ft 172 kts 139°
2026-05-06 23:59 22.25692 -97.83717 1918 ft 191 kts 140°
2026-05-06 23:59 22.24621 -97.82775 2203 ft 210 kts 140°
2026-05-06 23:59 22.23349 -97.81838 2536 ft 231 kts 157°
2026-05-06 23:59 22.21742 -97.81447 3090 ft 243 kts 170°
2026-05-07 00:00 22.20044 -97.81175 3702 ft 250 kts 171°
2026-05-07 00:00 22.18304 -97.80916 4351 ft 256 kts 172°
2026-05-07 00:00 22.16519 -97.80656 4990 ft 261 kts 172°
2026-05-07 00:00 22.14709 -97.80390 5668 ft 265 kts 172°
2026-05-07 00:01 22.12871 -97.80115 6337 ft 268 kts 172°
2026-05-07 00:01 22.11015 -97.79835 7035 ft 270 kts 172°
2026-05-07 00:01 22.09138 -97.79547 7643 ft 280 kts 172°
2026-05-07 00:01 22.07154 -97.79245 8071 ft 293 kts 172°
2026-05-07 00:02 22.05123 -97.78941 8745 ft 297 kts 172°
2026-05-07 00:02 22.03067 -97.78634 9485 ft 299 kts 172°
2026-05-07 00:02 22.01022 -97.78327 10164 ft 303 kts 172°
2026-05-07 00:02 21.98860 -97.78001 10370 ft 326 kts 172°
2026-05-07 00:03 21.96545 -97.77651 10586 ft 344 kts 172°
2026-05-07 00:03 21.94152 -97.77288 11155 ft 349 kts 172°
2026-05-07 00:03 21.91740 -97.76923 11824 ft 351 kts 172°
2026-05-07 00:03 21.89316 -97.76554 12527 ft 352 kts 171°
2026-05-07 00:04 21.86900 -97.76137 13206 ft 353 kts 169°
2026-05-07 00:04 21.84483 -97.75604 13823 ft 356 kts 167°
2026-05-07 00:04 21.82063 -97.75001 14419 ft 358 kts 166°
2026-05-07 00:04 21.79634 -97.74370 15005 ft 360 kts 166°
2026-05-07 00:05 21.77185 -97.73734 15604 ft 363 kts 167°
2026-05-07 00:05 21.74725 -97.73109 16183 ft 365 kts 167°
2026-05-07 00:05 21.72243 -97.72495 16789 ft 367 kts 167°
2026-05-07 00:05 21.69742 -97.71888 17408 ft 369 kts 167°
2026-05-07 00:06 21.67228 -97.71281 17985 ft 371 kts 168°
2026-05-07 00:06 21.64699 -97.70673 18499 ft 374 kts 168°
2026-05-07 00:06 21.62151 -97.70061 18977 ft 377 kts 168°
2026-05-07 00:06 21.59574 -97.69437 19459 ft 381 kts 168°
2026-05-07 00:07 21.56978 -97.68809 19932 ft 385 kts 168°
2026-05-07 00:07 21.54351 -97.68175 20412 ft 388 kts 168°
2026-05-07 00:07 21.51706 -97.67537 20893 ft 392 kts 168°
2026-05-07 00:07 21.49027 -97.66890 21374 ft 396 kts 168°
2026-05-07 00:08 21.46327 -97.66235 21836 ft 400 kts 168°
2026-05-07 00:08 21.43638 -97.65584 22308 ft 403 kts 168°
2026-05-07 00:08 21.40890 -97.64920 22761 ft 407 kts 168°
2026-05-07 00:08 21.38113 -97.64249 23195 ft 411 kts 168°
2026-05-07 00:09 21.35317 -97.63572 23578 ft 414 kts 169°
2026-05-07 00:09 21.32500 -97.62896 23954 ft 416 kts 169°
2026-05-07 00:09 21.29662 -97.62218 24331 ft 419 kts 169°
2026-05-07 00:09 21.26808 -97.61535 24711 ft 421 kts 169°
2026-05-07 00:10 21.23939 -97.60846 25083 ft 424 kts 169°
2026-05-07 00:10 21.21052 -97.60150 25435 ft 426 kts 169°
2026-05-07 00:10 21.18152 -97.59449 25778 ft 428 kts 169°
2026-05-07 00:10 21.15239 -97.58744 26125 ft 431 kts 169°
2026-05-07 00:11 21.12310 -97.58036 26474 ft 433 kts 169°
2026-05-07 00:11 21.09359 -97.57326 26818 ft 435 kts 169°
2026-05-07 00:11 21.06397 -97.56617 27139 ft 438 kts 169°
2026-05-07 00:11 21.03411 -97.55903 27464 ft 440 kts 169°
2026-05-07 00:12 21.00423 -97.55185 27785 ft 442 kts 169°
2026-05-07 00:12 20.97533 -97.54491 28090 ft 444 kts 169°
2026-05-07 00:12 20.94509 -97.53768 28403 ft 446 kts 169°
2026-05-07 00:12 20.91471 -97.53041 28696 ft 448 kts 169°
2026-05-07 00:13 20.88419 -97.52309 28992 ft 450 kts 169°
2026-05-07 00:13 20.85355 -97.51573 29265 ft 452 kts 169°
2026-05-07 00:13 20.82279 -97.50835 29535 ft 454 kts 169°
2026-05-07 00:13 20.79187 -97.50094 29705 ft 455 kts 169°
2026-05-07 00:14 20.76142 -97.49362 29733 ft 444 kts 169°
2026-05-07 00:14 20.73148 -97.48642 29739 ft 439 kts 169°
2026-05-07 00:14 20.67238 -97.47268 29739 ft 436 kts 173°
2026-05-07 00:15 20.64225 -97.47123 29738 ft 433 kts 186°
2026-05-07 00:15 20.61276 -97.47686 29739 ft 431 kts 198°
2026-05-07 00:15 20.58519 -97.48923 29740 ft 430 kts 210°
2026-05-07 00:15 20.56090 -97.50769 29738 ft 430 kts 222°
2026-05-07 00:16 20.52129 -97.55540 29734 ft 430 kts 229°
2026-05-07 00:16 20.48273 -97.60415 29731 ft 430 kts 229°
2026-05-07 00:17 20.44410 -97.65284 29735 ft 430 kts 229°
2026-05-07 00:17 20.40534 -97.70154 29371 ft 432 kts 229°
2026-05-07 00:18 20.38601 -97.72590 28908 ft 429 kts 229°
2026-05-07 00:18 20.36685 -97.75011 28459 ft 426 kts 229°
2026-05-07 00:18 20.34781 -97.77418 28000 ft 423 kts 229°
2026-05-07 00:18 20.32889 -97.79805 27561 ft 421 kts 229°
2026-05-07 00:19 20.31000 -97.82179 27123 ft 418 kts 229°
2026-05-07 00:19 20.29123 -97.84532 26702 ft 416 kts 229°
2026-05-07 00:19 20.27257 -97.86870 26332 ft 413 kts 229°
2026-05-07 00:19 20.25398 -97.89199 25965 ft 412 kts 229°
2026-05-07 00:20 20.23549 -97.91515 25603 ft 409 kts 229°
2026-05-07 00:20 20.21712 -97.93823 25247 ft 408 kts 229°
2026-05-07 00:20 20.19906 -97.96093 24901 ft 406 kts 229°
2026-05-07 00:20 20.18063 -97.98409 24551 ft 404 kts 229°
2026-05-07 00:21 20.16274 -98.00653 24208 ft 402 kts 229°
2026-05-07 00:21 20.14471 -98.02911 23869 ft 399 kts 229°
2026-05-07 00:21 20.12679 -98.05155 23532 ft 397 kts 229°
2026-05-07 00:21 20.10893 -98.07390 23138 ft 395 kts 229°
2026-05-07 00:22 20.09114 -98.09612 22728 ft 393 kts 228°
2026-05-07 00:22 20.07344 -98.11822 22326 ft 391 kts 229°
2026-05-07 00:22 20.05584 -98.14019 21950 ft 389 kts 228°
2026-05-07 00:22 20.03812 -98.16183 21545 ft 386 kts 224°
2026-05-07 00:23 20.01773 -98.18008 21170 ft 382 kts 213°
2026-05-07 00:23 19.99439 -98.19337 20804 ft 379 kts 201°
2026-05-07 00:23 19.96955 -98.20262 20429 ft 378 kts 198°
2026-05-07 00:23 19.94470 -98.21157 20065 ft 376 kts 198°
2026-05-07 00:24 19.92001 -98.22044 19702 ft 374 kts 197°
2026-05-07 00:24 19.89536 -98.22929 19329 ft 372 kts 198°
2026-05-07 00:24 19.87092 -98.23807 18975 ft 371 kts 198°
2026-05-07 00:24 19.84655 -98.24682 18610 ft 369 kts 198°
2026-05-07 00:25 19.82233 -98.25554 18258 ft 367 kts 197°
2026-05-07 00:25 19.79821 -98.26424 17854 ft 365 kts 197°
2026-05-07 00:25 19.77429 -98.27285 17461 ft 362 kts 197°
2026-05-07 00:25 19.75047 -98.28141 17067 ft 360 kts 197°
2026-05-07 00:26 19.72678 -98.28992 16678 ft 358 kts 197°
2026-05-07 00:26 19.70369 -98.29932 16282 ft 356 kts 207°
2026-05-07 00:26 19.68453 -98.31533 15891 ft 347 kts 227°
2026-05-07 00:26 19.67230 -98.33676 15512 ft 337 kts 248°
2026-05-07 00:27 19.66694 -98.36021 15147 ft 327 kts 257°
2026-05-07 00:27 19.66283 -98.38354 14778 ft 316 kts 256°
2026-05-07 00:27 19.65889 -98.40606 14571 ft 306 kts 256°
2026-05-07 00:27 19.65506 -98.42806 14410 ft 302 kts 256°
2026-05-07 00:28 19.65122 -98.44992 14258 ft 300 kts 257°
2026-05-07 00:28 19.64737 -98.47170 14101 ft 300 kts 257°
2026-05-07 00:28 19.64351 -98.49338 13943 ft 299 kts 257°
2026-05-07 00:28 19.63964 -98.51504 13781 ft 298 kts 257°
2026-05-07 00:29 19.63580 -98.53661 13598 ft 297 kts 258°
2026-05-07 00:29 19.63201 -98.55809 13439 ft 296 kts 258°
2026-05-07 00:30 19.62088 -98.62147 12987 ft 285 kts 258°
2026-05-07 00:30 19.61719 -98.64207 12831 ft 283 kts 257°
2026-05-07 00:30 19.61355 -98.66252 12690 ft 282 kts 258°
2026-05-07 00:30 19.60991 -98.68296 12548 ft 282 kts 258°
2026-05-07 00:31 19.60630 -98.70333 12432 ft 281 kts 258°
2026-05-07 00:31 19.60270 -98.72366 12297 ft 280 kts 258°
2026-05-07 00:31 19.59913 -98.74368 12165 ft 272 kts 258°
2026-05-07 00:31 19.59569 -98.76309 12046 ft 262 kts 258°
2026-05-07 00:32 19.59240 -98.78173 11911 ft 253 kts 258°
2026-05-07 00:32 19.58720 -98.79912 11700 ft 241 kts 242°
2026-05-07 00:32 19.57905 -98.81405 11488 ft 229 kts 238°
2026-05-07 00:32 19.57109 -98.82830 11225 ft 221 kts 238°
2026-05-07 00:33 19.56334 -98.84218 10979 ft 216 kts 238°
2026-05-07 00:33 19.55576 -98.85576 10715 ft 212 kts 238°
2026-05-07 00:33 19.54830 -98.86912 10476 ft 209 kts 239°
2026-05-07 00:33 19.54090 -98.88237 10244 ft 208 kts 239°
2026-05-07 00:34 19.53355 -98.89552 10004 ft 207 kts 239°
2026-05-07 00:34 19.52626 -98.90857 9735 ft 203 kts 239°
2026-05-07 00:34 19.51920 -98.92120 9463 ft 196 kts 239°
2026-05-07 00:34 19.51236 -98.93343 9245 ft 187 kts 239°
2026-05-07 00:35 19.50597 -98.94486 9087 ft 174 kts 239°
2026-05-07 00:35 19.49990 -98.95570 9021 ft 169 kts 238°
2026-05-07 00:35 19.49393 -98.96637 8999 ft 168 kts 237°
2026-05-07 00:35 19.48805 -98.97687 8974 ft 168 kts 237°
2026-05-07 00:36 19.48209 -98.98753 8883 ft 168 kts 236°
2026-05-07 00:36 19.47617 -98.99810 8703 ft 166 kts 237°
2026-05-07 00:36 19.47027 -99.00865 8487 ft 166 kts 237°
2026-05-07 00:36 19.46442 -99.01923 8176 ft 167 kts 237°
2026-05-07 00:37 19.45856 -99.02969 7931 ft 165 kts 236°
2026-05-07 00:37 19.45268 -99.04012 7684 ft 163 kts 236°
2026-05-07 00:37 19.44689 -99.05043 7412 ft 162 kts 235°
2026-05-07 00:37 19.44140 -99.06019 7303 ft 140 kts 237°
2026-05-07 00:38 19.43716 -99.06767 7303 ft 94 kts 239°
2026-05-07 00:38 19.43453 -99.07241 7302 ft 59 kts 239°
2026-05-07 00:38 19.43333 -99.07503 7303 ft 30 kts 264°
2026-05-07 00:38 19.43327 -99.07634 7303 ft 12 kts 269°
2026-05-07 00:39 19.43325 -99.07716 7303 ft 10 kts 269°
2026-05-07 00:39 19.43325 -99.07802 7303 ft 14 kts 270°
2026-05-07 00:39 19.43325 -99.07914 7303 ft 16 kts 270°
2026-05-07 00:39 19.43337 -99.08038 7304 ft 18 kts 294°
2026-05-07 00:40 19.43406 -99.08127 7303 ft 14 kts 249°
2026-05-07 00:40 19.43356 -99.08218 7303 ft 16 kts 239°
2026-05-07 00:40 19.43309 -99.08303 7303 ft 12 kts 239°
2026-05-07 00:40 19.43282 -99.08351 7303 ft 7 kts 239°
2026-05-07 00:41 19.43252 -99.08404 7303 ft 7 kts 242°
2026-05-07 00:41 19.43270 -99.08442 7303 ft 8 kts 334°
2026-05-07 00:41 19.43311 -99.08466 7303 ft 2 kts 329°
2026-05-07 00:41 19.43325 -99.08475 7303 ft 0 kts 329°